Tracking 29089 objects as of 12-Jul-2024
HD Live streaming from Space Station
objects crossing your sky now

COSMOS 1275 DEB

Track COSMOS 1275 DEB now!
10-day predictions


NORAD ID: 12963
Int'l Code: 1981-053EJ
Perigee: 944.2 km
Apogee: 981.2 km
Inclination: 82.9 °
Period: 104.2 minutes
Semi major axis: 7333 km
RCS: 0.047 m2 (small)
Launch date: June 4, 1981
Source: Commonwealth of Independent States (former USSR) (CIS)
Launch site: PLESETSK MISSILE AND SPACE COMPLEX (PKMTR)

Note: This is SATELLITE DEBRIS
Your satellite tracking list
Your tracking list is empty




NASA's NSSDC Master Catalog

Two Line Element Set (TLE):
1 12963U 81053EJ  24193.84424014  .00000566  00000-0  50869-3 0  9992
2 12963  82.9471 341.9568 0025201  55.4240  98.7757 13.82356600148369
Source of the keplerian elements: AFSPC